Dewpoint
58 58 57 57 57 56 56 55 55 55 55 55 54 55 56 57 58 55 50 53 55 58 56 51 49 49 45 45 46 44 39 36 37 35 35 35 34 34 29 27 26 27 27 28 26
58 58 58 57 57 56 56 56 55 55 55 55 55 56 56 57 53 51 56 59 59 57 50 47 46 43 43 44 43 42 38 38 37 36 35 36 35 33 27 26 26 26 29 26 26
57 57 57 57 57 56 56 56 55 55 55 55 55 57 57 56 48 49 58 60 58 55 49 48 45 42 42 44 42 41 39 38 36 35 36 35 33 34 28 28 26 26 27 23 23
57 57 57 57 57 56 56 56 55 55 54 55 56 58 58 52 32 46 59 59 57 51 45 42 42 41 41 41 42 38 40 37 38 37 35 34 34 32 32 32 29 28 26 22 22
57 57 57 57 56 56 56 56 56 55 55 54 57 57 53 47 47 47 58 55 49 45 41 41 39 40 39 40 41 39 39 38 38 36 35 34 33 32 31 29 27 29 27 23 22
58 58 57 57 56 56 56 56 55 55 55 54 56 57 49 42 46 45 50 44 44 39 36 38 40 40 39 37 39 39 39 36 36 36 35 34 33 32 32 26 26 28 30 29 23
57 57 58 58 57 56 56 55 55 55 54 53 56 53 49 44 42 43 47 34 37 36 34 37 36 37 35 33 34 31 31 27 34 34 32 31 28 27 31 25 25 27 28 28 23
54 56 57 57 58 57 55 55 55 55 54 53 56 50 45 49 47 36 33 33 35 34 34 36 35 33 33 30 26 28 27 30 27 33 28 24 21 18 26 23 24 26 26 24 20
50 53 55 56 57 57 57 55 55 54 53 53 51 47 42 44 37 35 32 31 31 31 32 32 32 29 27 24 21 22 22 22 18 31 22 23 20 16 22 22 22 22 20 23 20
51 52 52 55 55 56 56 55 53 51 51 52 50 44 44 38 40 38 35 31 30 30 29 30 28 26 24 23 22 18 18 18 16 28 21 18 18 18 21 22 21 19 15 22 20
51 51 52 53 53 54 52 46 37 41 45 41 41 38 35 39 37 36 32 30 31 28 25 28 25 27 27 23 19 19 18 17 17 23 21 19 18 18 18 23 22 20 16 21 22
52 52 52 51 51 52 50 44 39 36 32 39 43 43 40 32 29 32 30 28 29 26 26 25 25 25 24 23 21 17 15 13 14 17 22 20 18 20 20 18 22 22 21 16 24
51 51 52 51 52 50 48 45 41 39 34 32 34 39 40 31 30 29 29 27 26 26 25 22 20 23 23 23 20 18 16 14 13 13 15 13 13 13 15 19 18 22 23 19 23
51 51 50 51 46 47 46 48 48 44 29 25 28 32 37 34 30 30 30 27 26 25 25 24 24 24 23 23 20 16 16 15 14 13 12 15 11 11 12 12 15 17 19 22 18
49 50 49 49 43 44 44 46 46 39 17 22 27 31 33 32 30 28 30 26 25 25 24 23 20 21 19 19 19 18 18 16 15 12 12 11 10 11 10 12 14 15 15 18 17
47 47 48 47 47 44 46 45 44 30 15 22 28 28 29 29 24 27 28 24 25 21 19 22 19 19 19 18 17 17 17 18 16 12 8 11 10 10 9 10 13 15 15 14 22
48 48 47 46 42 47 47 44 29 19 23 22 23 28 28 25 22 24 25 21 19 16 16 16 15 17 18 15 16 15 14 12 10 8 11 13 10 10 11 11 13 15 17 21 21
47 46 46 44 48 47 44 35 22 23 22 26 24 27 27 26 23 22 25 23 22 19 18 16 13 15 17 16 14 14 16 15 7 10 14 11 10 13 10 10 11 16 19 21 19
46 45 44 45 47 46 38 26 22 25 24 25 24 25 26 26 29 22 22 24 23 22 18 16 15 16 17 17 15 14 15 19 15 13 10 11 9 10 9 16 18 19 19 19 18
43 41 39 44 46 42 32 29 28 27 32 30 21 23 24 27 27 29 23 23 23 23 26 20 13 15 15 16 15 14 17 14 13 5 8 11 12 9 8 13 18 18 18 18 18
40 36 40 45 45 36 26 26 32 31 34 31 29 29 28 27 29 29 28 24 22 23 25 21 17 14 15 15 14 15 14 19 18 16 11 10 12 15 10 12 17 18 17 17 16
38 30 39 45 33 32 26 34 34 31 32 34 34 33 31 32 30 29 29 26 24 24 22 21 20 12 13 17 17 16 18 18 14 7 8 12 11 14 10 11 18 18 17 15 16
35 35 43 43 26 28 31 29 34 33 30 30 31 33 33 32 29 31 28 30 30 25 23 23 19 11 13 16 17 15 16 17 12 14 11 11 9 13 10 10 17 18 17 16 16
34 28 33 35 33 26 26 27 32 36 35 35 31 33 33 33 34 32 29 30 28 28 34 27 21 17 13 13 15 11 15 19 17 13 13 13 13 12 10 10 11 15 17 16 15
34 27 33 28 27 31 28 24 26 29 36 36 34 31 32 29 33 32 31 27 29 34 28 27 21 19 21 19 16 14 12 17 15 15 14 14 13 13 12 11 10 11 12 12 12
32 30 34 33 31 31 32 27 28 30 34 32 32 33 33 30 32 32 30 29 26 27 28 28 23 22 20 20 19 18 17 19 17 16 17 16 16 18 14 12 12 10 12 13 14
38 37 34 30 31 27 26 28 30 34 33 33 33 33 33 33 36 36 36 36 34 29 28 27 24 22 18 20 19 16 18 19 18 19 17 14 16 19 13 12 15 13 14 15 16
Lifted_Index
5 5 5 6 6 7 7 7 7 8 7 8 8 8 7 7 7 7 7 6 5 5 5 6 7 8 7 7 6 6 6 6 6 6 6 5 6 6 6 5 5 5 6 7 8
5 5 5 6 6 6 7 7 8 8 7 7 7 7 7 7 7 7 6 5 4 4 5 6 7 7 7 7 6 6 6 6 6 6 6 6 6 6 6 5 5 5 6 7 8
5 5 5 5 6 6 7 7 8 8 8 7 6 6 6 6 6 6 5 4 4 5 6 6 6 7 6 6 6 6 6 6 6 6 6 6 6 6 6 5 5 6 6 7 7
4 4 5 5 5 6 6 7 7 8 8 7 6 5 5 6 6 5 4 4 5 6 6 6 6 6 6 5 5 6 6 6 6 6 6 6 6 6 5 5 5 6 6 7 7
3 3 3 4 5 5 6 6 7 7 8 8 6 6 6 6 6 5 4 4 6 6 6 6 6 6 5 5 5 5 6 6 6 6 6 5 5 5 5 5 5 6 6 7 7
2 2 3 3 4 4 5 6 7 7 8 7 7 6 6 6 6 5 5 5 6 7 6 6 6 6 5 5 5 5 5 5 5 5 5 5 5 5 5 5 5 5 6 7 7
3 2 2 2 3 3 5 6 6 7 7 7 7 6 6 6 6 6 6 6 7 7 7 6 6 6 6 5 5 5 5 5 5 5 5 5 5 5 6 6 6 6 6 7 7
4 3 2 2 2 3 4 5 6 6 7 7 7 7 7 7 6 6 6 6 7 8 8 7 6 6 6 6 5 5 5 4 5 6 6 5 5 6 8 8 7 7 7 7 7
5 5 3 2 2 2 3 4 5 5 6 6 7 7 7 7 7 6 6 7 8 9 9 8 7 6 6 6 5 4 3 4 5 6 7 6 5 7 8 9 8 8 8 8 8
7 6 5 4 3 2 2 3 4 4 5 5 6 7 8 7 7 6 7 8 9 9 9 8 7 6 6 5 4 3 3 3 5 6 6 6 6 7 8 9 9 9 9 9 9
7 7 6 5 4 3 3 3 3 3 4 5 6 7 8 8 7 7 7 8 9 9 9 8 7 6 6 6 5 4 4 4 5 6 6 5 6 7 8 9 9 9 10 10 9
7 7 6 5 5 4 3 2 2 3 3 4 5 6 7 7 7 7 7 7 8 8 8 7 6 6 7 7 6 5 4 4 5 6 6 5 5 6 8 8 9 9 10 10 10
6 6 5 5 4 3 3 2 2 2 3 4 5 5 6 6 7 7 7 7 7 7 7 7 6 7 7 7 6 5 5 5 5 5 5 5 4 5 6 7 8 9 10 10 10
5 4 4 4 3 3 2 1 1 1 2 3 4 5 5 5 6 6 6 6 6 7 7 7 7 7 7 6 6 5 6 6 5 5 4 4 3 3 5 6 7 8 9 10 10
3 3 2 2 2 2 1 0 0 0 1 2 3 3 4 4 4 5 4 5 5 6 7 7 7 7 7 6 6 6 6 6 6 5 4 3 2 3 3 4 6 7 9 10 11
2 2 1 1 1 1 0 -0 -0 0 1 1 1 2 2 2 3 3 4 4 4 5 6 7 7 7 7 7 7 7 6 5 5 4 3 2 2 2 3 4 6 7 9 10 11
1 0 0 0 0 1 0 -0 -0 -0 0 0 0 0 1 1 2 2 3 3 4 4 4 6 7 7 7 7 7 7 5 3 2 2 2 2 2 3 4 6 7 8 10 10 11
-0 -0 -0 -0 0 1 0 -0 -0 0 0 0 -0 -0 -0 0 1 1 2 2 3 3 3 4 5 7 7 7 7 6 5 3 2 1 2 2 3 3 5 7 8 9 10 10 10
-0 0 0 0 0 1 0 0 0 0 0 -0 -0 -0 -0 0 0 1 2 2 3 3 3 3 4 6 7 7 7 6 5 4 3 2 2 2 3 4 5 7 8 9 10 11 11
0 1 0 0 0 0 0 0 0 0 -0 -0 -0 0 0 0 1 1 2 2 3 4 4 4 4 5 6 7 7 6 6 5 4 3 1 1 2 3 5 6 7 8 10 11 11
1 1 1 0 0 0 0 0 0 0 -0 -0 -0 0 0 0 1 1 2 2 3 4 4 4 4 5 6 6 6 6 6 5 5 3 2 1 2 4 5 6 7 9 10 11 11
1 1 1 0 0 1 1 0 0 0 -0 -0 -0 -0 -0 0 1 2 2 3 3 4 4 5 4 4 5 6 6 6 6 5 5 4 3 2 3 5 6 7 8 9 10 11 11
1 1 1 0 1 1 1 0 0 -0 -0 -0 -0 -0 -0 0 1 2 2 3 3 4 4 5 4 3 4 5 6 6 5 5 5 4 3 3 4 5 6 7 8 9 10 11 11
1 1 1 1 1 1 1 1 0 0 0 0 -0 -0 -0 1 1 2 2 3 3 3 4 4 4 3 3 4 4 5 5 5 5 4 3 3 4 5 6 7 7 8 9 10 11
1 1 1 1 1 1 1 1 1 1 0 0 0 0 0 1 1 1 2 2 3 3 3 4 4 4 3 3 4 4 4 4 4 4 4 3 4 5 6 7 7 8 9 10 10
1 1 1 1 1 1 1 1 1 1 1 1 0 0 1 1 1 2 2 2 3 3 3 3 4 3 3 3 3 3 4 4 4 4 4 4 4 6 7 7 7 8 8 9 9
1 1 1 1 1 1 1 1 1 1 1 1 0 0 1 1 1 2 2 2 2 2 2 3 3 3 2 3 3 3 4 4 4 4 4 4 4 6 7 7 7 8 8 9 9